Weather History for Sarasota, FL

Change the Weather History Date:

Monday, February 17, 2014

  Actual Average Record
Temperature  
Mean Temperature 62 °F 64 °F  
Max Temperature 77 °F 73 °F 85 °F (1986)
Min Temperature 46 °F 54 °F 32 °F (1996)
Degree Days  
Heating Degree Days 3 3  
Month to date heating degree days 44 65  
Since 1 July heating degree days 297 385  
Cooling Degree Days 0 2  
Month to date cooling degree days 42 30  
Year to date cooling degree days 73 82  
Growing Degree Days 10 (Base 50)    
Moisture  
Dew Point 47 °F    
Average Humidity 67    
Maximum Humidity 93    
Minimum Humidity 29    
Precipitation  
Precipitation 0.00 in 0.13 in 1.72 in (1983)
Month to date precipitation 1.14 1.20  
Year to date precipitation 3.24 3.69  
Sea Level Pressure  
Sea Level Pressure 30.19 in    
Wind  
Wind Speed 6 mph (NE)    
Max Wind Speed 13 mph    
Max Gust Speed 15 mph    
Visibility 10 miles    
Events      
T = Trace of Precipitation, MM = Missing Value Source: NWS Daily Summary

Daily Weather History Graph

Daily Weather History Graph

Search for Another Location

Airport:

Trip Planner

Search our weather history database for the weather conditions in past years. The results will help you decide how hot, cold, wet, or windy it might be!

Date:

Astronomy

Feb. 17, 2014 Rise Set
Actual Time 7:05 AM EST 6:23 PM EST
Civil Twilight 6:41 AM EST 6:47 PM EST
Nautical Twilight 6:14 AM EST 7:14 PM EST
Astronomical Twilight 5:47 AM EST 7:41 PM EST
Moon 8:56 PM EST (2/17) 8:22 AM EST (2/17)
Length of Visible Light 12h 05m
Length of Day
11h 17m
Waning Gibbous, 93% of the Moon is Illuminated
Feb 17
Waning Gibbous
Feb 22
Last Quarter
Mar 1
New
Mar 8
First Quarter
Mar 16
Full

Hourly Weather History & Observations

Time (EST) Temp. Dew Point Humidity Pressure Visibility Wind Dir Wind Speed Gust Speed Precip Events Conditions
12:53 AM 50.0 °F 46.9 °F 89% 30.17 in 10.0 mi ENE 4.6 mph - N/A   Clear
1:53 AM 50.0 °F 46.9 °F 89% 30.17 in 10.0 mi Calm Calm - N/A   Clear
2:53 AM 48.0 °F 46.0 °F 93% 30.17 in 10.0 mi NE 4.6 mph - N/A   Clear
3:53 AM 48.9 °F 45.0 °F 86% 30.17 in 10.0 mi ENE 5.8 mph - N/A   Clear
4:53 AM 46.9 °F 44.1 °F 90% 30.17 in 10.0 mi East 3.5 mph - N/A   Clear
5:53 AM 46.9 °F 43.0 °F 86% 30.19 in 10.0 mi ENE 4.6 mph - N/A   Clear
6:53 AM 46.9 °F 43.0 °F 86% 30.21 in 10.0 mi ENE 5.8 mph - N/A   Clear
7:53 AM 46.9 °F 43.0 °F 86% 30.21 in 10.0 mi East 5.8 mph - N/A   Clear
8:53 AM 57.9 °F 39.9 °F 51% 30.22 in 10.0 mi East 6.9 mph - N/A   Clear
9:53 AM 66.9 °F 37.0 °F 33% 30.23 in 10.0 mi East 6.9 mph - N/A   Clear
10:53 AM 72.0 °F 37.0 °F 28% 30.22 in 10.0 mi East 8.1 mph - N/A   Clear
11:53 AM 75.0 °F 41.0 °F 29% 30.20 in 10.0 mi SE 8.1 mph - N/A   Clear
12:53 PM 75.0 °F 43.0 °F 32% 30.19 in 10.0 mi WSW 8.1 mph - N/A   Clear
1:53 PM 75.0 °F 46.9 °F 37% 30.16 in 10.0 mi WSW 9.2 mph - N/A   Clear
2:53 PM 73.9 °F 51.1 °F 45% 30.15 in 10.0 mi WSW 11.5 mph - N/A   Clear
3:53 PM 73.0 °F 52.0 °F 48% 30.16 in 10.0 mi West 11.5 mph - N/A   Clear
4:53 PM 72.0 °F 52.0 °F 49% 30.17 in 10.0 mi West 9.2 mph - N/A   Clear
5:53 PM 69.1 °F 53.1 °F 57% 30.18 in 10.0 mi West 6.9 mph - N/A   Clear
6:53 PM 64.0 °F 55.0 °F 73% 30.17 in 10.0 mi Calm Calm - N/A   Clear
7:53 PM 64.0 °F 55.0 °F 73% 30.19 in 10.0 mi WNW 3.5 mph - N/A   Clear
8:53 PM 64.0 °F 55.0 °F 73% 30.19 in 10.0 mi NNW 3.5 mph - N/A   Clear
9:53 PM 57.9 °F 54.0 °F 87% 30.19 in 10.0 mi Calm Calm - N/A   Clear
10:53 PM 57.0 °F 55.0 °F 93% 30.20 in 10.0 mi NNE 3.5 mph - N/A   Clear
11:53 PM 54.0 °F 52.0 °F 93% 30.19 in 10.0 mi East 3.5 mph - N/A   Clear